[[{"header":{"parameterUnit":"m.s-1","parameterCategory":2,"la1":30.2991,"la2":30.254,"lo1":-89.0895,"lo2":-89.0444,"dy":0.0017,"dx":0.0017,"nx":28,"ny":28,"refTime":"2026-01-10T09:00:00:Z","depth":"0","parameterNumber":2,"parameterNumberName":"U-component_of_CURRENTS"},"data":[0,0,0,0,0,0,0,0,0,0,0,0,0,0,0,0,0,0,0,0,0,0,0,0,0,0,0,0,0,0,0,0,0,0,0,0,0,0,0,0,0,0,0,0,0,0,0,0,0,0,0,0,0,0,0,0,0,0,0.1842,0.1841,0,0.1757,0.1756,0.1755,0.1691,0.1691,0.1691,0.1691,0.1486,0.1481,0.1476,0,0,0,0,0,0,0,0,0,0,0,0,0,0.184,0.1841,0.1842,0.1841,0.184,0.1757,0.1756,0.1754,0.1692,0.1691,0.1691,0.169,0.1488,0.1482,0.1476,0,0,0,0,0,0,0,0,0,0,0,0,0,0.1805,0.1842,0.1842,0.1801,0.1796,0.1757,0.1756,0.1754,0.1692,0.1691,0.1691,0.169,0.149,0.1483,0.1475,0.1437,0,0,0.1451,0.1448,0,0,0,0,0,0,0,0,0.1807,0.1805,0.1807,0.1803,0.1798,0.1736,0.168,0.1643,0.1692,0.1729,0.169,0.169,0.1561,0.1547,0.1531,0.1428,0.1419,0.1451,0.1446,0.1443,0.1441,0,0,0,0,0,0,0,0.181,0.1807,0.1806,0.1807,0.1801,0.1749,0.1744,0.1673,0.1644,0.1725,0.1721,0.1716,0.1557,0.1538,0.1525,0.1416,0.1451,0.1444,0.1439,0.1436,0.1425,0.1429,0,0,0,0,0,0,0.1832,0.1811,0.1808,0.1803,0.1804,0.175,0.1745,0.1755,0.1648,0.1633,0.1716,0.1713,0.1552,0.1534,0.1518,0.1556,0.1443,0.1436,0.1431,0.1421,0.1426,0.143,0,0,0,0,0,0,0.1832,0.1833,0.1812,0.1806,0.18,0.1752,0.1763,0.1753,0.175,0.1643,0.1625,0.1725,0.1551,0.1528,0.1502,0.1544,0.1432,0.1425,0.1416,0.1422,0.1428,0.1576,0,0,0,0,0,0,0.1833,0.1834,0.1853,0.1808,0.1801,0.1816,0.1763,0.1752,0.1747,0.1743,0.1643,0.1623,0.1549,0.1515,0.1495,0.1532,0.1419,0.141,0.1418,0.1426,0.1566,0.1587,0.1605,0,0,0,0,0,0.1833,0.1862,0.1855,0.1854,0.1828,0.1817,0.181,0.177,0.1749,0.1762,0.1713,0.1627,0.1553,0.1512,0.1487,0.1522,0.1406,0.1416,0.1425,0.1557,0.1582,0.1604,0,0,0,0,0,0,0.1863,0.1857,0.1848,0.1871,0.1859,0.1808,0.1812,0.1789,0.176,0.1753,0.1656,0.1634,0.1637,0.1573,0.153,0.1556,0.1475,0.148,0.1584,0.1607,0.1626,0.1627,0.1413,0,0,0,0,0,0.1883,0.1907,0.1886,0.1906,0.1905,0.1865,0.1856,0.1834,0.18,0.1786,0.1726,0.1679,0.1656,0.1626,0.1589,0.1577,0.1549,0.1599,0.1619,0.1635,0.1629,0.1664,0.1685,0.1462,0.1462,0.1462,0,0,0.1894,0.1898,0.1907,0.1915,0.1897,0.1905,0.1858,0.1859,0.1872,0.1766,0.1768,0.1736,0.1675,0.1683,0.1678,0.1628,0.1692,0.1648,0.1661,0.1645,0.1676,0.1697,0.1716,0.1469,0.1468,0.1467,0,0,0.1925,0.194,0.1966,0.1967,0.1963,0.1945,0.1957,0.1929,0.1929,0.1925,0.1882,0.1889,0.1816,0.1806,0.1785,0.1891,0.1802,0.1886,0.196,0.1996,0.2014,0.2028,0.2042,0.2057,0.1885,0.1885,0.1886,0,0.1942,0.1968,0.197,0.1992,0.1991,0.1974,0.1988,0.1995,0.1967,0.1973,0.1948,0.1924,0.188,0.1904,0.1956,0.193,0.1925,0.1865,0.2018,0.2032,0.2045,0.2054,0.2069,0.1894,0.1893,0.1892,0.1891,0,0.198,0.2004,0.202,0.2047,0.2055,0.2067,0.2073,0.2093,0.2087,0.2082,0.2113,0.2081,0.2059,0.2077,0.2036,0.2117,0.2079,0.2045,0.1948,0.2075,0.2079,0.2091,0.1906,0.1903,0.19,0.1898,0,0,0.2004,0.204,0.2043,0.2053,0.2081,0.2083,0.2134,0.216,0.2179,0.2196,0.222,0.2243,0.2227,0.2208,0.2185,0.2224,0.2329,0.2177,0.2175,0.2171,0.2397,0.2304,0.2307,0.2317,0.232,0.2322,0.237,0,0.2027,0.2066,0.2083,0.2115,0.213,0.2143,0.2181,0.221,0.2227,0.2256,0.2279,0.2288,0.2279,0.2269,0.2322,0.2313,0.2364,0.2317,0.229,0.2289,0.2174,0.232,0.2188,0.2213,0.2381,0.2383,0.2385,0,0.2052,0.2076,0.2105,0.2134,0.2141,0.2161,0.2199,0.2231,0.2289,0.2302,0.2342,0.2342,0.241,0.2379,0.2455,0.2423,0.2432,0.2434,0.2435,0.2295,0.2218,0.2112,0.2228,0.2174,0.2402,0.24,0.2399,0,0.2042,0.2086,0.2104,0.2115,0.2153,0.217,0.219,0.224,0.2262,0.2328,0.2339,0.2415,0.2427,0.2482,0.2496,0.2482,0.2563,0.2534,0.2466,0.2458,0.231,0.2284,0.2346,0.2608,0.2608,0.2608,0.2608,0,0.2052,0.2064,0.2096,0.2103,0.212,0.2155,0.2175,0.2212,0.226,0.2286,0.2354,0.2381,0.2456,0.25,0.2526,0.2529,0.2591,0.2502,0.2478,0.2361,0.234,0.2252,0.2232,0.2609,0.2609,0.2609,0.2608,0,0.2026,0.2053,0.2068,0.2104,0.2111,0.2118,0.2145,0.2162,0.2217,0.2253,0.2275,0.2366,0.2426,0.2482,0.2552,0.2536,0.2482,0.2545,0.2392,0.2349,0.2212,0.2204,0.2134,0.208,0.2485,0.2483,0.2481,0,0.2008,0.2017,0.2045,0.2046,0.2055,0.207,0.2077,0.213,0.2147,0.2236,0.225,0.2328,0.2371,0.2436,0.2426,0.245,0.2415,0.2332,0.2287,0.2209,0.2184,0.2113,0.2068,0.2165,0.2161,0.2158,0.2155,0,0.1971,0.1982,0.1993,0.1999,0.2002,0.2003,0.2021,0.2029,0.2095,0.2132,0.2191,0.2238,0.2284,0.2251,0.2264,0.2262,0.22,0.2262,0.2235,0.199,0.1864,0.1795,0.2121,0.2126,0.2129,0.2131,0.2132,0.2134,0.1933,0.193,0.1948,0.1946,0.1944,0.1936,0.1924,0.1951,0.1972,0.2011,0.2095,0.2112,0.2109,0.2103,0.2084,0.1945,0.199,0.1886,0.19,0.1849,0.1742,0.1991,0.193,0.1931,0.1933,0.1934,0.1935,0,0.1896,0.19,0.1895,0.189,0.1863,0.1883,0.1882,0.1864,0.1866,0.1904,0.1938,0.1894,0.1841,0.182,0.1693,0.1606,0.1542,0.157,0.1465,0.1455,0.1724,0.1654,0.1464,0.1464,0.1464,0.1464,0.1464,0.1464,0.1882,0.1871,0.1871,0.1816,0.1802,0.1758,0.1747,0.1729,0.1733,0.1686,0.1638,0.1642,0.1634,0.1559,0.1422,0.1379,0.1301,0.1203,0.1264,0.1474,0.1505,0.1535,0.1467,0.1241,0.1241,0.0905,0.0903,0.0901]},{"header":{"parameterUnit":"m.s-1","parameterCategory":2,"la1":30.2991,"la2":30.254,"lo1":-89.0895,"lo2":-89.0444,"dy":0.0017,"dx":0.0017,"nx":28,"ny":28,"refTime":"2026-01-10T09:00:00:Z","depth":"0","parameterNumber":3,"parameterNumberName":"V-component_of_CURRENTS"},"data":[0,0,0,0,0,0,0,0,0,0,0,0,0,0,0,0,0,0,0,0,0,0,0,0,0,0,0,0,0,0,0,0,0,0,0,0,0,0,0,0,0,0,0,0,0,0,0,0,0,0,0,0,0,0,0,0,0,0,0.0135,0.0136,0,0.0166,0.0166,0.0166,0.0171,0.0171,0.017,0.017,0.0186,0.0186,0.0187,0,0,0,0,0,0,0,0,0,0,0,0,0,0.0106,0.0106,0.0135,0.0136,0.0136,0.0166,0.0166,0.0167,0.0171,0.0171,0.017,0.017,0.0185,0.0186,0.0187,0,0,0,0,0,0,0,0,0,0,0,0,0,0.0124,0.0106,0.0135,0.0144,0.0145,0.0166,0.0166,0.0167,0.0171,0.0171,0.017,0.017,0.0185,0.0186,0.0187,0.0194,0,0,0.0189,0.0189,0,0,0,0,0,0,0,0,0.0123,0.0124,0.0142,0.0143,0.0145,0.0166,0.0162,0.0176,0.0171,0.0158,0.017,0.017,0.0179,0.018,0.0184,0.0194,0.0195,0.0189,0.0189,0.019,0.019,0,0,0,0,0,0,0,0.0121,0.0123,0.0145,0.0143,0.0144,0.0155,0.0157,0.0164,0.0167,0.016,0.016,0.0168,0.018,0.0183,0.0184,0.0195,0.0189,0.019,0.019,0.019,0.0234,0.0234,0,0,0,0,0,0,0.0121,0.0122,0.0144,0.0146,0.0136,0.0156,0.0158,0.0158,0.0168,0.017,0.0168,0.0168,0.0182,0.0183,0.0185,0.022,0.019,0.019,0.0191,0.0233,0.0234,0.0235,0,0,0,0,0,0,0.012,0.0122,0.0143,0.0137,0.0141,0.0156,0.0156,0.0158,0.0164,0.0174,0.0176,0.0172,0.0182,0.0184,0.0192,0.022,0.0191,0.0191,0.0232,0.0233,0.0234,0.0275,0,0,0,0,0,0,0.0119,0.0121,0.0119,0.0137,0.0141,0.0163,0.0157,0.0159,0.017,0.017,0.0178,0.018,0.0182,0.0191,0.0193,0.022,0.0192,0.0231,0.0233,0.0234,0.0273,0.0277,0.0281,0,0,0,0,0,0.0117,0.0131,0.0119,0.0122,0.0138,0.0164,0.0168,0.0177,0.017,0.018,0.0179,0.0179,0.0202,0.0192,0.0194,0.0222,0.0231,0.0232,0.0234,0.0271,0.0276,0.0281,0,0,0,0,0,0,0.0136,0.0133,0.0121,0.0135,0.0147,0.0166,0.0177,0.0178,0.0185,0.0182,0.0183,0.0185,0.0205,0.0204,0.0193,0.0238,0.0219,0.0221,0.0246,0.0251,0.0255,0.027,0.0193,0,0,0,0,0,0.0132,0.0128,0.0136,0.0148,0.0151,0.0159,0.0169,0.0175,0.0186,0.0188,0.0192,0.0199,0.0214,0.0223,0.0231,0.0252,0.0247,0.0272,0.0277,0.028,0.0293,0.031,0.0317,0.024,0.024,0.024,0,0,0.0147,0.0142,0.0143,0.015,0.0155,0.0174,0.0164,0.0185,0.0206,0.0189,0.0212,0.0211,0.022,0.0246,0.0256,0.0249,0.0295,0.0282,0.0286,0.0297,0.0313,0.032,0.0327,0.0241,0.0241,0.0241,0,0,0.0179,0.0163,0.017,0.0176,0.0183,0.0189,0.0194,0.0209,0.0217,0.0235,0.0233,0.0251,0.0262,0.0285,0.0296,0.0329,0.0313,0.0326,0.0366,0.0382,0.0389,0.0394,0.0376,0.038,0.0332,0.0332,0.0332,0,0.0198,0.0199,0.0182,0.0194,0.0204,0.0196,0.0219,0.0232,0.025,0.0263,0.0248,0.0282,0.029,0.0336,0.0349,0.0343,0.0329,0.0346,0.0388,0.0394,0.0399,0.0379,0.0383,0.0334,0.0334,0.0334,0.0334,0,0.0231,0.0234,0.0244,0.0243,0.0255,0.0274,0.0284,0.0298,0.0297,0.0312,0.0344,0.035,0.0373,0.0381,0.0377,0.0425,0.0392,0.0388,0.0376,0.041,0.0386,0.0389,0.0338,0.0337,0.0336,0.0336,0,0,0.0267,0.0265,0.0267,0.0271,0.0278,0.0295,0.0325,0.0354,0.0381,0.039,0.0429,0.0456,0.0451,0.0463,0.0461,0.048,0.0501,0.0451,0.045,0.0434,0.0505,0.0466,0.0465,0.0497,0.0499,0.05,0.0465,0,0.0296,0.032,0.0313,0.0346,0.0357,0.0357,0.0389,0.0415,0.043,0.0464,0.0478,0.051,0.0485,0.0497,0.0513,0.051,0.0515,0.0509,0.0475,0.0473,0.0437,0.0471,0.0483,0.0453,0.0468,0.0469,0.0469,0,0.0321,0.0331,0.036,0.0383,0.039,0.0413,0.045,0.048,0.0524,0.0538,0.0564,0.0567,0.0603,0.0573,0.0579,0.057,0.0542,0.0531,0.0529,0.0486,0.0442,0.0427,0.0458,0.0393,0.0474,0.0474,0.0474,0,0.0333,0.0362,0.0381,0.0389,0.0419,0.044,0.0461,0.0503,0.054,0.0586,0.0618,0.0636,0.066,0.0637,0.0602,0.0592,0.0593,0.0578,0.0511,0.0506,0.0509,0.0503,0.0482,0.0582,0.0582,0.0582,0.0582,0,0.0352,0.0371,0.0389,0.0401,0.0442,0.0456,0.0509,0.0536,0.0591,0.0656,0.0655,0.0708,0.0679,0.0672,0.0622,0.0573,0.0604,0.0527,0.0507,0.0519,0.0515,0.0451,0.0413,0.0581,0.0581,0.0581,0.0581,0,0.0358,0.0368,0.0395,0.0429,0.0445,0.0473,0.0536,0.0585,0.0626,0.0711,0.0731,0.077,0.0765,0.0707,0.0676,0.0608,0.0521,0.0528,0.0523,0.0504,0.038,0.0344,0.03,0.0275,0.0456,0.0455,0.0455,0,0.0362,0.0374,0.0411,0.0437,0.0454,0.05,0.0546,0.0597,0.0658,0.076,0.0813,0.0831,0.0872,0.078,0.0665,0.0555,0.0496,0.0472,0.047,0.0383,0.033,0.0304,0.0286,0.0478,0.0477,0.0477,0.0476,0,0.0375,0.0384,0.0408,0.0459,0.0504,0.0563,0.0633,0.069,0.0774,0.0858,0.0967,0.1007,0.092,0.0832,0.0655,0.0577,0.043,0.0457,0.0392,0.0368,0.032,0.0283,0.0458,0.0472,0.0473,0.0473,0.0473,0.0473,0.0388,0.0407,0.0442,0.0494,0.0549,0.0639,0.0711,0.0804,0.0923,0.1077,0.1084,0.117,0.0994,0.0774,0.0636,0.0385,0.04,0.0329,0.0296,0.028,0.0255,0.0398,0.0376,0.0375,0.0375,0.0375,0.0375,0,0.0414,0.0441,0.0484,0.0558,0.0633,0.0659,0.0787,0.0881,0.1044,0.1165,0.1267,0.1221,0.1014,0.0769,0.042,0.026,0.0216,0.0177,0.0163,0.0155,0.0309,0.0309,0.0243,0.0243,0.0243,0.0243,0.0243,0.0243,0.0436,0.0478,0.0502,0.0625,0.0687,0.0813,0.09,0.104,0.1152,0.1313,0.1363,0.1376,0.1166,0.0571,0.0197,0.0122,0.0029,0.0001,-0.0051,0.0065,0.0078,0.0089,0.0081,-0.0032,-0.0032,-0.017,-0.0172,-0.0173]}],[{"header":{"parameterUnit":"m.s-1","parameterCategory":2,"la1":30.2991,"la2":30.254,"lo1":-89.0895,"lo2":-89.0444,"dy":0.0017,"dx":0.0017,"nx":28,"ny":28,"refTime":"2026-01-10T09:00:00:Z","depth":"2","parameterNumber":2,"parameterNumberName":"U-component_of_CURRENTS"},"data":[0,0,0,0,0,0,0,0,0,0,0,0,0,0,0,0,0,0,0,0,0,0,0,0,0,0,0,0,0,0,0,0,0,0,0,0,0,0,0,0,0,0,0,0,0,0,0,0,0,0,0,0,0,0,0,0,0,0,0.131,0.1309,0,0.1215,0.1214,0.1214,0.1183,0.1183,0.1183,0.1183,0.1132,0.1131,0.113,0,0,0,0,0,0,0,0,0,0,0,0,0,0.1485,0.1482,0.131,0.1309,0.1307,0.1215,0.1214,0.1214,0.1183,0.1183,0.1183,0.1183,0.1133,0.1131,0.113,0,0,0,0,0,0,0,0,0,0,0,0,0,0.1406,0.1481,0.131,0.1277,0.1273,0.1215,0.1214,0.1213,0.1183,0.1183,0.1183,0.1183,0.1133,0.1131,0.1129,0.1117,0,0,0.1123,0.1122,0,0,0,0,0,0,0,0,0.141,0.14,0.1284,0.1279,0.1275,0.1207,0.1257,0.1182,0.1183,0.1222,0.1183,0.1183,0.1158,0.1154,0.1142,0.1114,0.1112,0.1123,0.1122,0.1121,0.112,0,0,0,0,0,0,0,0.1416,0.1404,0.1277,0.1282,0.1276,0.1274,0.1263,0.1243,0.1196,0.1219,0.1215,0.1197,0.1157,0.1144,0.1141,0.1111,0.1123,0.1121,0.112,0.1119,0.1159,0.1161,0,0,0,0,0,0,0.1417,0.1409,0.128,0.1274,0.1339,0.127,0.1258,0.1232,0.1195,0.1187,0.1197,0.1196,0.1148,0.1143,0.1139,0.1188,0.1121,0.1119,0.1118,0.1157,0.116,0.1162,0,0,0,0,0,0,0.1421,0.1406,0.1284,0.1337,0.132,0.1266,0.1238,0.123,0.1223,0.1177,0.1172,0.1198,0.1148,0.1142,0.114,0.1183,0.1118,0.1116,0.1154,0.1158,0.1161,0.1243,0,0,0,0,0,0,0.1426,0.1408,0.1419,0.1336,0.1317,0.1267,0.1237,0.1228,0.121,0.1208,0.1176,0.1171,0.1147,0.1143,0.1138,0.1179,0.1115,0.1151,0.1156,0.116,0.1237,0.1249,0.1258,0,0,0,0,0,0.1433,0.1446,0.142,0.1406,0.1324,0.1267,0.1259,0.1223,0.121,0.1216,0.1197,0.1172,0.1167,0.1142,0.1136,0.1178,0.1149,0.1155,0.1159,0.1232,0.1246,0.1258,0,0,0,0,0,0,0.1521,0.144,0.1411,0.1397,0.1341,0.126,0.1274,0.1231,0.1218,0.1234,0.1182,0.1177,0.1198,0.1176,0.115,0.1207,0.1162,0.1166,0.122,0.1233,0.1243,0.1276,0.1113,0,0,0,0,0,0.1544,0.1535,0.1446,0.1434,0.1418,0.1346,0.1328,0.1296,0.1257,0.1251,0.1229,0.122,0.1213,0.1212,0.1207,0.1222,0.1221,0.1254,0.1264,0.1273,0.1299,0.1331,0.1347,0.1179,0.1179,0.1179,0,0,0.1568,0.1527,0.1519,0.1454,0.1419,0.1404,0.1338,0.132,0.1316,0.125,0.1274,0.1253,0.1225,0.1252,0.1261,0.1239,0.132,0.128,0.1287,0.1309,0.1338,0.1354,0.1369,0.1182,0.1182,0.1181,0,0,0.1604,0.1584,0.1585,0.1557,0.1508,0.1469,0.1463,0.1401,0.1394,0.139,0.1356,0.1362,0.1344,0.1342,0.1331,0.1398,0.1374,0.1402,0.148,0.151,0.1524,0.1536,0.155,0.1563,0.1408,0.1408,0.1408,0,0.1635,0.1609,0.1578,0.1577,0.1555,0.15,0.1489,0.1485,0.1433,0.1437,0.1421,0.1418,0.1394,0.1415,0.1446,0.1423,0.1431,0.1426,0.1523,0.1535,0.1547,0.1558,0.1571,0.1413,0.1412,0.1412,0.1411,0,0.1657,0.165,0.1656,0.1632,0.1624,0.1606,0.158,0.1595,0.158,0.1561,0.1586,0.1557,0.1553,0.1553,0.1517,0.1587,0.1563,0.1529,0.1488,0.1568,0.1575,0.1587,0.1419,0.1418,0.1416,0.1415,0,0,0.1651,0.166,0.1659,0.1657,0.1643,0.1627,0.1668,0.1655,0.1682,0.1685,0.1702,0.1713,0.1704,0.1695,0.1658,0.1691,0.1767,0.1656,0.1656,0.1666,0.1833,0.1734,0.1737,0.175,0.1753,0.1755,0.1803,0,0.165,0.1657,0.1663,0.1676,0.1668,0.167,0.1704,0.1721,0.1731,0.1761,0.1763,0.1777,0.1754,0.1749,0.1788,0.1768,0.1805,0.1757,0.1759,0.1759,0.1658,0.175,0.1597,0.162,0.1814,0.1816,0.1818,0,0.1644,0.1645,0.1654,0.1676,0.1677,0.1702,0.1741,0.1762,0.182,0.183,0.1871,0.1868,0.1919,0.1876,0.1935,0.1907,0.1895,0.1882,0.1882,0.1775,0.1684,0.1574,0.1634,0.1837,0.1836,0.1834,0.1833,0,0.1619,0.1633,0.1638,0.1644,0.1677,0.1705,0.1728,0.179,0.1811,0.188,0.1911,0.1965,0.1983,0.2009,0.1993,0.1978,0.2039,0.2,0.1904,0.1895,0.1758,0.1733,0.2055,0.2055,0.2055,0.2055,0.2054,0,0.159,0.1598,0.1637,0.164,0.1667,0.1706,0.1749,0.179,0.1849,0.189,0.1948,0.1985,0.2024,0.2051,0.2035,0.201,0.2076,0.1948,0.1915,0.178,0.1757,0.1936,0.1922,0.2056,0.2056,0.2056,0.2055,0,0.1569,0.1583,0.1595,0.1638,0.1655,0.1684,0.1739,0.1775,0.1849,0.1903,0.1928,0.2019,0.2062,0.207,0.2094,0.2048,0.2029,0.1992,0.1822,0.1768,0.186,0.1849,0.1924,0.1922,0.1919,0.1917,0.1916,0,0.1555,0.1562,0.1594,0.1602,0.1625,0.1666,0.1694,0.1758,0.1792,0.1913,0.1935,0.2014,0.2019,0.2023,0.1968,0.1923,0.1975,0.1749,0.1695,0.1894,0.1854,0.1847,0.184,0.1548,0.1543,0.154,0.1537,0,0.1538,0.1559,0.1574,0.1586,0.1611,0.1624,0.1672,0.1686,0.1771,0.1818,0.1885,0.1904,0.1919,0.1806,0.1746,0.1699,0.1748,0.1671,0.1945,0.1591,0.1539,0.1499,0.1505,0.1504,0.1507,0.151,0.1511,0.1513,0.1536,0.154,0.1562,0.157,0.1591,0.1587,0.1574,0.1612,0.1633,0.1654,0.1737,0.1696,0.1699,0.1523,0.1457,0.1418,0.1538,0.1464,0.1476,0.1492,0.1427,0.1371,0.1293,0.1295,0.1296,0.1298,0.1299,0,0.1518,0.153,0.1539,0.1537,0.1531,0.1558,0.1562,0.1508,0.1488,0.1493,0.1484,0.1317,0.1222,0.1241,0.1124,0.1098,0.1094,0.1056,0.1053,0.1086,0.1115,0.1031,0.0792,0.0791,0.0789,0.0788,0,0,0.151,0.1506,0.1502,0.1477,0.148,0.1434,0.1414,0.1334,0.1297,0.1174,0.112,0.1135,0.1191,0.0977,0.0942,0.0858,0.0966,0.0814,0.1221,0.1251,0.1279,0.1349,0.1256,0,0,0,0,0]},{"header":{"parameterUnit":"m.s-1","parameterCategory":2,"la1":30.2991,"la2":30.254,"lo1":-89.0895,"lo2":-89.0444,"dy":0.0017,"dx":0.0017,"nx":28,"ny":28,"refTime":"2026-01-10T09:00:00:Z","depth":"2","parameterNumber":3,"parameterNumberName":"V-component_of_CURRENTS"},"data":[0,0,0,0,0,0,0,0,0,0,0,0,0,0,0,0,0,0,0,0,0,0,0,0,0,0,0,0,0,0,0,0,0,0,0,0,0,0,0,0,0,0,0,0,0,0,0,0,0,0,0,0,0,0,0,0,0,0,-0.0127,-0.0126,0,-0.0095,-0.0094,-0.0094,-0.0082,-0.0082,-0.0083,-0.0083,-0.0015,-0.0013,-0.0011,0,0,0,0,0,0,0,0,0,0,0,0,0,-0.0141,-0.0141,-0.0127,-0.0126,-0.0126,-0.0095,-0.0094,-0.0094,-0.0082,-0.0082,-0.0083,-0.0083,-0.0015,-0.0013,-0.0011,0,0,0,0,0,0,0,0,0,0,0,0,0,-0.0124,-0.0141,-0.0127,-0.0117,-0.0116,-0.0095,-0.0094,-0.0094,-0.0082,-0.0083,-0.0083,-0.0083,-0.0016,-0.0013,-0.001,0.0012,0,0,-0.0001,-0.0,0,0,0,0,0,0,0,0,-0.0125,-0.0123,-0.0119,-0.0117,-0.0116,-0.0093,-0.0074,-0.0057,-0.0082,-0.0095,-0.0083,-0.0083,-0.0038,-0.0033,-0.0026,0.0015,0.0018,-0.0001,0.0001,0.0002,0.0003,0,0,0,0,0,0,0,-0.0126,-0.0124,-0.0114,-0.0118,-0.0117,-0.0101,-0.0099,-0.0071,-0.0064,-0.0094,-0.0093,-0.009,-0.0037,-0.0029,-0.0025,0.0019,-0.0001,0.0001,0.0003,0.0004,0.0067,0.0067,0,0,0,0,0,0,-0.0133,-0.0126,-0.0115,-0.0113,-0.0122,-0.0101,-0.0099,-0.01,-0.0065,-0.0061,-0.0089,-0.0089,-0.0034,-0.0028,-0.0022,0.0001,0.0002,0.0005,0.0006,0.0067,0.0067,0.0067,0,0,0,0,0,0,-0.0133,-0.0132,-0.0116,-0.0118,-0.0115,-0.0101,-0.0102,-0.0099,-0.0095,-0.0063,-0.0057,-0.0089,-0.0034,-0.0026,-0.0006,0.0004,0.0006,0.0009,0.0067,0.0067,0.0067,0.0051,0,0,0,0,0,0,-0.0134,-0.0133,-0.014,-0.0119,-0.0116,-0.0111,-0.0102,-0.0098,-0.0093,-0.0092,-0.006,-0.0054,-0.0034,-0.001,-0.0003,0.0008,0.0011,0.0067,0.0067,0.0067,0.0052,0.005,0.0049,0,0,0,0,0,-0.0134,-0.0138,-0.0141,-0.014,-0.0126,-0.0111,-0.0108,-0.0097,-0.0093,-0.0094,-0.0074,-0.0055,-0.0006,-0.0008,0.0001,0.0013,0.0067,0.0067,0.0067,0.0052,0.0051,0.0049,0,0,0,0,0,0,-0.0136,-0.0137,-0.014,-0.0141,-0.0133,-0.0109,-0.0106,-0.01,-0.0085,-0.0081,-0.0054,-0.0047,-0.0026,-0.0007,-0.001,0.0028,0.0034,0.0035,0.0019,0.0018,0.0017,0.0034,0.0013,0,0,0,0,0,-0.0144,-0.0154,-0.0145,-0.0145,-0.0142,-0.0126,-0.012,-0.0112,-0.0094,-0.0088,-0.0065,-0.0041,-0.0019,-0.0002,0.0018,0.0044,0.0056,0.0056,0.0054,0.0053,0.0072,0.0091,0.0093,0.0066,0.0066,0.0066,0,0,-0.0142,-0.0145,-0.0149,-0.0148,-0.0138,-0.0128,-0.0123,-0.0112,-0.0102,-0.0081,-0.0059,-0.0044,-0.0015,0.0008,0.002,0.0026,0.0061,0.0053,0.0052,0.0072,0.0091,0.0094,0.0096,0.0066,0.0066,0.0066,0,0,-0.0137,-0.0147,-0.0153,-0.0146,-0.014,-0.0131,-0.013,-0.0111,-0.0105,-0.0085,-0.0069,-0.0048,-0.0013,0.0011,0.0028,0.0035,0.005,0.0036,0.0052,0.0069,0.0072,0.0075,0.0065,0.0067,0.004,0.004,0.004,0,-0.0135,-0.0143,-0.0149,-0.0144,-0.0137,-0.0133,-0.0123,-0.0113,-0.009,-0.0076,-0.0081,-0.0022,-0.0006,0.0036,0.0033,0.0036,0.0036,0.0055,0.0069,0.0072,0.0075,0.0065,0.0067,0.0039,0.0039,0.0039,0.0039,0,-0.0133,-0.0134,-0.0131,-0.0132,-0.0124,-0.0116,-0.0103,-0.0096,-0.0088,-0.0069,-0.0035,-0.0013,0.0028,0.0028,0.0035,0.0067,0.0054,0.006,0.0073,0.0077,0.0065,0.0068,0.0038,0.0038,0.0039,0.0039,0,0,-0.0138,-0.0134,-0.0133,-0.0124,-0.0118,-0.0103,-0.0094,-0.0075,-0.005,-0.0035,0.0006,0.003,0.0047,0.0068,0.0079,0.0094,0.0097,0.0085,0.0086,0.0077,0.0113,0.0083,0.0083,0.0101,0.0102,0.0103,0.0086,0,-0.0135,-0.0126,-0.0126,-0.0103,-0.0094,-0.0086,-0.0069,-0.0047,-0.0031,0.001,0.0036,0.0079,0.0061,0.0087,0.0096,0.0114,0.0109,0.01,0.0112,0.0112,0.0087,0.0088,0.0094,0.0079,0.0089,0.009,0.009,0,-0.0136,-0.013,-0.0113,-0.0084,-0.0077,-0.0058,-0.0025,-0.0006,0.004,0.0055,0.0095,0.0121,0.0161,0.014,0.016,0.0154,0.0129,0.0127,0.0126,0.0115,0.0089,0.0083,0.0084,0.0095,0.0095,0.0094,0.0094,0,-0.0136,-0.0117,-0.0103,-0.0093,-0.0062,-0.0045,-0.0024,0.0014,0.0053,0.0099,0.0144,0.0172,0.0223,0.02,0.0188,0.0176,0.0199,0.0184,0.0125,0.0121,0.0141,0.0137,0.0179,0.0179,0.0179,0.0179,0.0179,0,-0.0137,-0.0118,-0.0096,-0.0082,-0.0044,-0.0024,0.0027,0.0045,0.0109,0.0186,0.0182,0.0256,0.0244,0.0258,0.0209,0.0181,0.0211,0.0134,0.0124,0.013,0.0126,0.016,0.0158,0.0178,0.0178,0.0179,0.0179,0,-0.0127,-0.0123,-0.0091,-0.0057,-0.0041,-0.0005,0.0068,0.0117,0.0158,0.0262,0.0288,0.0342,0.0358,0.0314,0.0296,0.023,0.0188,0.0158,0.0151,0.014,0.0086,0.0083,0.0098,0.0097,0.0096,0.0095,0.0095,0,-0.0119,-0.0104,-0.0064,-0.0034,-0.0012,0.0042,0.0089,0.0137,0.0207,0.0329,0.0398,0.044,0.0488,0.0422,0.0312,0.0203,0.019,0.0119,0.0101,0.0094,0.0082,0.0081,0.0079,0.0107,0.0106,0.0106,0.0106,0,-0.0086,-0.0073,-0.0044,0.0008,0.0058,0.0123,0.0202,0.0266,0.0355,0.0451,0.0586,0.0632,0.0564,0.0479,0.0304,0.0226,0.0136,0.0107,0.013,0.0121,0.01,0.0089,0.0088,0.0102,0.0103,0.0103,0.0103,0.0103,-0.005,-0.0024,0.0012,0.0064,0.013,0.0224,0.0295,0.0403,0.0535,0.0689,0.0707,0.0761,0.0631,0.0421,0.0277,0.0113,0.0125,0.006,0.0062,0.0065,0.0064,0.0042,0.0032,0.0032,0.0032,0.0032,0.0032,0,-0.0013,0.0017,0.0071,0.0142,0.0229,0.0254,0.0391,0.0488,0.0666,0.0753,0.0851,0.073,0.0606,0.0442,0.02,0.0055,0.0048,0.0005,0.0034,0.0038,0.0041,0.0041,0.0002,0.0001,0.0001,0.0,0,0,0.0012,0.0055,0.0076,0.0213,0.0285,0.0416,0.0504,0.0664,0.0757,0.0866,0.0874,0.0841,0.0648,0.0462,0.0274,0.014,0.012,0.0108,0.0148,0.0208,0.0213,0.0087,0.0092,0,0,0,0,0]}],[{"header":{"parameterUnit":"m.s-1","parameterCategory":2,"la1":30.2991,"la2":30.254,"lo1":-89.0895,"lo2":-89.0444,"dy":0.0017,"dx":0.0017,"nx":28,"ny":28,"refTime":"2026-01-10T09:00:00:Z","depth":"4","parameterNumber":2,"parameterNumberName":"U-component_of_CURRENTS"},"data":[0,0,0,0,0,0,0,0,0,0,0,0,0,0,0,0,0,0,0,0,0,0,0,0,0,0,0,0,0,0,0,0,0,0,0,0,0,0,0,0,0,0,0,0,0,0,0,0,0,0,0,0,0,0,0,0,0,0,0.0291,0.0292,0,0.0387,0.0388,0.0389,0.044,0.044,0.0441,0.0441,0.0572,0.0575,0.0579,0,0,0,0,0,0,0,0,0,0,0,0,0,0.0112,0.0115,0.029,0.0292,0.0293,0.0387,0.0388,0.039,0.044,0.044,0.0441,0.0441,0.0571,0.0575,0.0579,0,0,0,0,0,0,0,0,0,0,0,0,0,0.0196,0.0116,0.029,0.0331,0.0335,0.0387,0.0388,0.039,0.044,0.044,0.0441,0.0441,0.057,0.0575,0.058,0.0604,0,0,0.0595,0.0597,0,0,0,0,0,0,0,0,0.0191,0.0202,0.0323,0.0328,0.0333,0.0403,0.0374,0.0464,0.044,0.0399,0.0441,0.0441,0.052,0.0529,0.0544,0.061,0.0616,0.0595,0.0598,0.06,0.0602,0,0,0,0,0,0,0,0.0185,0.0198,0.0327,0.0325,0.0331,0.0331,0.0344,0.0391,0.0456,0.0402,0.0407,0.042,0.0522,0.0539,0.0547,0.0618,0.0595,0.0599,0.0602,0.0604,0.0733,0.0733,0,0,0,0,0,0,0.0179,0.0193,0.0324,0.033,0.0263,0.0335,0.0348,0.0379,0.0455,0.0467,0.0419,0.0422,0.053,0.0541,0.0552,0.0621,0.06,0.0605,0.0608,0.0732,0.0733,0.0733,0,0,0,0,0,0,0.0175,0.019,0.032,0.0264,0.0281,0.0338,0.0372,0.0381,0.0408,0.0467,0.048,0.0438,0.0531,0.0545,0.0601,0.0625,0.0607,0.0612,0.0732,0.0733,0.0733,0.0736,0,0,0,0,0,0,0.0169,0.0189,0.0196,0.0264,0.0284,0.0355,0.0372,0.0383,0.0416,0.042,0.0487,0.0499,0.0532,0.0594,0.0606,0.0632,0.0616,0.0731,0.0732,0.0733,0.0736,0.0737,0.0738,0,0,0,0,0,0.0163,0.0157,0.0196,0.0212,0.0297,0.0356,0.0366,0.0405,0.0416,0.043,0.0475,0.0498,0.0607,0.0598,0.0613,0.064,0.0731,0.0732,0.0733,0.0735,0.0737,0.0738,0,0,0,0,0,0,0.0088,0.0165,0.0208,0.0231,0.0298,0.0365,0.0384,0.0408,0.0453,0.0468,0.051,0.0525,0.058,0.0606,0.0594,0.0677,0.0671,0.0675,0.0667,0.0669,0.0671,0.0703,0.062,0,0,0,0,0,0.0078,0.0105,0.0186,0.0217,0.0253,0.0324,0.0349,0.0387,0.044,0.046,0.0504,0.0552,0.0594,0.0627,0.0668,0.072,0.0735,0.0743,0.0745,0.0745,0.078,0.0795,0.0801,0.0737,0.0737,0.0737,0,0,0.0067,0.011,0.0131,0.0204,0.0269,0.0315,0.0341,0.0398,0.0436,0.0469,0.0528,0.056,0.0606,0.0661,0.0688,0.0689,0.0768,0.0747,0.0747,0.0783,0.0797,0.0803,0.0809,0.0737,0.0737,0.0737,0,0,0.0053,0.0103,0.0124,0.017,0.0258,0.0311,0.0328,0.0409,0.0448,0.0516,0.0535,0.0584,0.0659,0.0691,0.0718,0.0752,0.0769,0.0756,0.0802,0.0815,0.0821,0.0826,0.0837,0.0843,0.0763,0.0763,0.0763,0,0.0039,0.0077,0.0139,0.0169,0.0211,0.0309,0.0348,0.0403,0.0485,0.0516,0.0542,0.0646,0.0681,0.074,0.0758,0.0759,0.0766,0.0791,0.0817,0.0823,0.0829,0.0838,0.0845,0.0763,0.0763,0.0763,0.0763,0,0.0043,0.0073,0.0095,0.0176,0.0226,0.0278,0.0373,0.0417,0.0486,0.0545,0.0631,0.0692,0.075,0.0765,0.0788,0.0839,0.0829,0.0809,0.0814,0.0835,0.0844,0.0851,0.0764,0.0764,0.0763,0.0763,0,0,0.0021,0.0084,0.0092,0.0124,0.0232,0.0277,0.0349,0.0441,0.0484,0.0589,0.0647,0.0747,0.0788,0.0822,0.0845,0.0885,0.0923,0.0878,0.0878,0.089,0.0953,0.0882,0.0882,0.09,0.0902,0.0903,0.0937,0,0.0021,0.005,0.009,0.0147,0.0188,0.0272,0.0328,0.0418,0.0512,0.0585,0.0688,0.0764,0.0807,0.0841,0.0888,0.0923,0.0946,0.0917,0.0932,0.0933,0.0867,0.089,0.0909,0.0942,0.0944,0.0945,0.0946,0,0.0016,0.0035,0.0075,0.0136,0.0164,0.0213,0.032,0.0389,0.0511,0.0577,0.0684,0.0755,0.0864,0.0876,0.098,0.0959,0.0965,0.099,0.0989,0.0938,0.0876,0.0921,0.096,0.0959,0.0958,0.0957,0.0956,0,-0.002,0.0025,0.0054,0.0077,0.0163,0.0199,0.0275,0.0393,0.0464,0.0591,0.0647,0.0772,0.0854,0.0908,0.0994,0.098,0.1088,0.105,0.0988,0.0983,0.1036,0.103,0.109,0.109,0.109,0.109,0.109,0,-0.0034,-0.0018,0.0036,0.0053,0.0095,0.0184,0.0264,0.0335,0.0463,0.0544,0.0657,0.0731,0.0869,0.095,0.0995,0.1039,0.1081,0.1019,0.0994,0.1032,0.1026,0.104,0.1033,0.1091,0.1091,0.109,0.109,0,-0.0063,-0.0034,-0.0011,0.0058,0.0084,0.0132,0.0264,0.0321,0.0438,0.0543,0.0588,0.0732,0.084,0.0949,0.1042,0.1032,0.1074,0.1055,0.1111,0.1085,0.0954,0.0948,0.0989,0.0987,0.0985,0.0984,0.0983,0,-0.0072,-0.0065,-0.0017,0.0003,0.0043,0.0121,0.0179,0.0308,0.0376,0.0534,0.0574,0.0711,0.0795,0.0908,0.0992,0.1063,0.1045,0.1038,0.0995,0.0977,0.0948,0.0944,0.094,0.098,0.0979,0.0979,0.0979,0,-0.0094,-0.0081,-0.006,-0.0025,0.0028,0.0074,0.0171,0.0214,0.0359,0.0446,0.0573,0.0658,0.0766,0.0876,0.0941,0.0979,0.104,0.1019,0.1022,0.0982,0.0966,0.0938,0.0936,0.0972,0.0973,0.0974,0.0974,0,-0.011,-0.0108,-0.0085,-0.0047,-0.0003,0.0037,0.0088,0.0187,0.0275,0.0455,0.0485,0.0639,0.0758,0.0829,0.0887,0.0935,0.0912,0.087,0.088,0.0888,0.0841,0.0805,0.0758,0,0,0,0,0,-0.012,-0.0119,-0.0102,-0.0066,-0.0027,0.0001,0.0083,0.0139,0.0258,0.034,0.0428,0.0532,0.0654,0.0729,0.0761,0.0803,0.0887,0.0829,0.0836,0.0938,0.0946,0.0901,0,0,0,0,0,0,-0.0128,-0.012,-0.0116,-0.0091,-0.0067,-0.0024,0.0026,0.0101,0.0162,0.0292,0.0382,0.0471,0.0614,0.0647,0.0747,0.0765,0.0749,0.092,0.0918,0.0934,0.0941,0.0947,0.0903,0,0,0,0,0]},{"header":{"parameterUnit":"m.s-1","parameterCategory":2,"la1":30.2991,"la2":30.254,"lo1":-89.0895,"lo2":-89.0444,"dy":0.0017,"dx":0.0017,"nx":28,"ny":28,"refTime":"2026-01-10T09:00:00:Z","depth":"4","parameterNumber":3,"parameterNumberName":"V-component_of_CURRENTS"},"data":[0,0,0,0,0,0,0,0,0,0,0,0,0,0,0,0,0,0,0,0,0,0,0,0,0,0,0,0,0,0,0,0,0,0,0,0,0,0,0,0,0,0,0,0,0,0,0,0,0,0,0,0,0,0,0,0,0,0,0.0127,0.0127,0,0.0106,0.0106,0.0106,0.0102,0.0102,0.0102,0.0102,0.0129,0.013,0.013,0,0,0,0,0,0,0,0,0,0,0,0,0,0.025,0.0247,0.0127,0.0127,0.0126,0.0106,0.0106,0.0106,0.0102,0.0102,0.0102,0.0102,0.0129,0.013,0.013,0,0,0,0,0,0,0,0,0,0,0,0,0,0.0211,0.0246,0.0127,0.012,0.0119,0.0106,0.0106,0.0106,0.0102,0.0102,0.0102,0.0102,0.0128,0.0129,0.0131,0.0139,0,0,0.0134,0.0135,0,0,0,0,0,0,0,0,0.0213,0.0207,0.0122,0.0121,0.0119,0.0105,0.0159,0.0118,0.0102,0.0111,0.0102,0.0102,0.0124,0.0125,0.0124,0.014,0.0141,0.0134,0.0135,0.0135,0.0136,0,0,0,0,0,0,0,0.0216,0.0208,0.0121,0.0121,0.012,0.0147,0.0141,0.0152,0.0121,0.011,0.0109,0.0103,0.0124,0.0123,0.0125,0.0141,0.0134,0.0135,0.0136,0.0136,0.0166,0.0166,0,0,0,0,0,0,0.0209,0.021,0.0122,0.012,0.0165,0.0145,0.0138,0.0111,0.0119,0.0119,0.0103,0.0103,0.0121,0.0123,0.0126,0.0124,0.0135,0.0136,0.0137,0.0166,0.0166,0.0166,0,0,0,0,0,0,0.0211,0.02,0.0122,0.0165,0.0156,0.0142,0.0112,0.0111,0.0107,0.0113,0.0115,0.01,0.0121,0.0124,0.0129,0.0126,0.0137,0.0138,0.0166,0.0166,0.0166,0.0129,0,0,0,0,0,0,0.0215,0.0201,0.0199,0.0163,0.0153,0.0111,0.0112,0.011,0.0102,0.0102,0.0111,0.0114,0.0121,0.0127,0.013,0.0128,0.0139,0.0166,0.0166,0.0166,0.013,0.0128,0.0126,0,0,0,0,0,0.0219,0.0226,0.0199,0.0189,0.0144,0.011,0.0108,0.0101,0.0102,0.0098,0.0103,0.0113,0.0131,0.0128,0.0131,0.0129,0.0165,0.0166,0.0166,0.0131,0.0128,0.0126,0,0,0,0,0,0,0.0282,0.0224,0.0195,0.0183,0.014,0.0108,0.011,0.0099,0.01,0.0099,0.0111,0.0114,0.0118,0.0131,0.0127,0.014,0.0152,0.0153,0.0124,0.0122,0.012,0.0118,0.014,0,0,0,0,0,0.0289,0.0288,0.0212,0.0211,0.0172,0.0136,0.0128,0.011,0.0097,0.0096,0.0102,0.0113,0.0123,0.0127,0.0137,0.0142,0.0147,0.0146,0.0144,0.0142,0.0144,0.0147,0.0145,0.0167,0.0167,0.0167,0,0,0.032,0.0289,0.029,0.0226,0.0186,0.0148,0.0131,0.0103,0.0092,0.0101,0.0101,0.0106,0.0123,0.0126,0.013,0.0135,0.0136,0.0142,0.014,0.0144,0.0147,0.0145,0.0143,0.0167,0.0167,0.0167,0,0,0.0377,0.0327,0.0329,0.0282,0.0216,0.0176,0.0162,0.0107,0.0094,0.0081,0.0091,0.0091,0.0104,0.0113,0.0121,0.0116,0.0125,0.0123,0.011,0.0112,0.011,0.0109,0.0098,0.0096,0.0121,0.0121,0.0121,0,0.0405,0.0389,0.0329,0.0299,0.0274,0.0183,0.0162,0.0125,0.0095,0.009,0.0076,0.0093,0.0097,0.0113,0.0103,0.0111,0.011,0.0114,0.0108,0.0107,0.0106,0.0095,0.0093,0.012,0.012,0.012,0.012,0,0.0432,0.0422,0.041,0.0338,0.0307,0.027,0.0185,0.0156,0.012,0.0091,0.0083,0.0078,0.0091,0.0088,0.0088,0.009,0.009,0.0103,0.011,0.0101,0.0091,0.0089,0.0117,0.0118,0.0118,0.0119,0,0,0.0454,0.0436,0.0426,0.0412,0.0319,0.0287,0.025,0.0188,0.0175,0.0121,0.0121,0.0102,0.0083,0.0092,0.0092,0.0083,0.0057,0.0082,0.0083,0.0064,0.0051,0.004,0.0038,0.0067,0.0067,0.0067,0.0041,0,0.0471,0.0465,0.0455,0.0439,0.0399,0.0334,0.0321,0.0264,0.0208,0.0177,0.013,0.0124,0.0087,0.0096,0.0072,0.0075,0.0054,0.0062,0.007,0.007,0.0056,0.0036,0.0067,0.004,0.004,0.0039,0.0039,0,0.0457,0.0463,0.047,0.0479,0.0455,0.0457,0.0403,0.0381,0.0306,0.0273,0.0226,0.0175,0.014,0.0115,0.0077,0.0084,0.0058,0.0046,0.0046,0.005,0.0058,0.0057,0.0037,0.0037,0.0037,0.0037,0.0037,0,0.0453,0.046,0.0485,0.0471,0.0461,0.0485,0.0478,0.042,0.0405,0.0333,0.0309,0.0242,0.022,0.0172,0.0098,0.0094,0.0058,0.0059,0.0022,0.002,0.0054,0.0056,0.0031,0.0031,0.0031,0.0031,0.0031,0,0.0437,0.045,0.0498,0.0498,0.0533,0.0524,0.0548,0.052,0.0498,0.0464,0.0369,0.033,0.0232,0.0171,0.0114,0.0055,0.0068,0.0013,0.0014,0.0037,0.0038,0.0052,0.0055,0.003,0.003,0.0031,0.0031,0,0.041,0.044,0.0466,0.0511,0.0533,0.0552,0.0601,0.0604,0.0585,0.0541,0.0518,0.0404,0.032,0.0222,0.0148,0.0087,0.0036,0.0014,0.0034,0.0037,-0.0011,-0.001,-0.0031,-0.0031,-0.0032,-0.0032,-0.0032,0,0.0398,0.0411,0.0473,0.0505,0.0542,0.0586,0.0617,0.0635,0.0629,0.0571,0.0544,0.0453,0.0355,0.0247,0.0154,0.0049,0.0031,-0.0003,-0.0012,-0.002,-0.0017,-0.0015,-0.0013,-0.0033,-0.0033,-0.0033,-0.0034,0,0.0374,0.0406,0.0433,0.05,0.0557,0.0598,0.0647,0.0648,0.0635,0.0628,0.0547,0.0446,0.0351,0.0237,0.0156,0.0079,0.0015,-0.0009,-0.0008,-0.0016,-0.0023,-0.0019,-0.0017,-0.0035,-0.0035,-0.0035,-0.0035,0,0.0362,0.0375,0.0427,0.0482,0.055,0.059,0.0616,0.0626,0.063,0.0574,0.0547,0.0436,0.0376,0.0253,0.0177,0.01,0.0075,0.0043,0.004,0.0041,0.0064,0.0066,0.0078,0,0,0,0,0,0.0344,0.0364,0.041,0.0468,0.0538,0.0579,0.0622,0.0638,0.0627,0.0574,0.0565,0.0467,0.0327,0.0271,0.0192,0.0163,0.006,0.0067,0.0021,-0.0045,-0.0043,-0.003,0,0,0,0,0,0,0.0332,0.0372,0.0392,0.0453,0.0494,0.0561,0.0588,0.0582,0.0559,0.0537,0.0476,0.0443,0.0325,0.0375,0.0189,0.0165,0.0122,0.0012,0.001,-0.0046,-0.0044,-0.0042,-0.0029,0,0,0,0,0]}]]